Date,TemperatureHighF,TemperatureAvgF,TemperatureLowF,DewpointHighF,DewpointAvgF,DewpointLowF,HumidityHigh,HumidityAvg,HumidityLow,PressureMaxIn,PressureMinIn,WindSpeedMaxMPH,WindSpeedAvgMPH,GustSpeedMaxMPH,PrecipitationSumIn
2013-3-1,34.0,34.0,34.0,3.6,3.6,3.6,27,27,27,29.30,29.30,4,4,4,0.00
2013-3-2,34.0,34.0,34.0,3.6,3.6,3.6,27,27,27,29.30,29.30,4,4,4,0.00
2013-3-3,34.0,34.0,34.0,3.6,3.6,3.6,27,27,27,29.30,29.30,4,4,4,0.00
2013-3-4,34.0,34.0,34.0,3.6,3.6,3.6,27,27,27,29.30,29.30,4,4,4,0.00
2013-3-5,34.0,34.0,34.0,3.6,3.6,3.6,27,27,27,29.30,29.30,4,4,4,0.00
2013-3-6,34.0,34.0,34.0,3.6,3.6,3.6,27,27,27,29.30,29.30,4,4,4,0.00
2013-3-9,47.1,43.0,41.2,9.2,4.8,-99.9,23,21,19,29.42,29.39,3,1,3,0.08
2013-3-10,64.4,50.3,37.2,21.5,12.6,4.9,29,22,17,29.42,29.30,6,2,6,0.17
2013-3-11,60.1,50.5,38.8,43.3,28.0,10.6,64,42,22,29.33,29.06,7,3,8,0.04
2013-3-12,66.7,55.7,40.3,62.3,39.7,17.1,98,62,24,29.09,28.85,7,3,10,1.24
2013-3-13,52.7,41.6,31.8,18.1,11.4,1.3,40,29,21,29.21,29.03,10,4,15,0.17
2013-3-14,52.5,38.2,28.4,12.2,5.1,1.1,32,25,18,29.30,29.15,11,5,13,0.00
2013-3-15,63.3,47.1,33.3,19.6,10.3,-0.6,26,22,18,29.24,28.94,8,3,13,0.00
2013-3-16,73.2,54.8,42.8,51.1,30.5,16.1,79,42,23,29.00,28.77,8,2,11,0.25
2013-3-17,42.8,36.6,31.8,32.0,29.5,27.1,86,75,63,29.36,29.00,3,1,5,0.08
2013-3-18,34.3,32.3,31.1,31.3,29.3,27.6,95,88,80,29.39,29.03,5,1,6,0.04
2013-3-19,58.3,42.1,30.9,42.7,27.1,15.3,98,68,19,29.03,28.88,9,2,11,0.58
2013-3-22,55.2,44.1,34.0,12.5,5.2,-99.9,25,20,18,29.12,29.00,8,3,10,0.00
2013-3-23,61.0,44.0,31.8,15.6,6.9,-0.9,33,22,16,29.18,29.03,6,2,8,0.00
2013-3-24,43.2,36.0,32.2,20.3,11.6,4.5,61,38,20,29.12,28.85,7,2,8,0.00
2013-3-25,35.6,32.4,32.4,18.9,16.0,-99.9,57,53,43,28.85,28.82,6,1,6,0.08
2013-3-26,47.3,39.4,31.6,19.1,15.4,13.9,50,38,29,29.03,28.85,8,4,10,0.29
2013-3-27,45.9,45.9,45.9,15.4,15.4,15.4,29,29,29,29.03,29.03,6,6,7,0.29
2013-3-28,45.9,45.9,45.9,15.4,15.4,15.4,29,29,29,29.03,29.03,6,6,7,0.29
2013-3-29,45.9,45.9,45.9,15.4,15.4,15.4,29,29,29,29.03,29.03,6,6,7,0.29
2013-3-30,45.9,45.9,45.9,15.4,15.4,15.4,29,29,29,29.03,29.03,6,6,7,0.29
2013-3-31,45.9,45.9,45.9,15.4,15.4,15.4,29,29,29,29.03,29.03,6,6,7,0.29